Location: D�sseldorf
(51.2275°N, 6.7813°E)
Time: 09:31:15
(UTC+01:00)

ISS - Visible Passes

Search period start: 10 December 2025 00:00
Search period end: 20 December 2025 00:00
Orbit: 416 x 420 km, 51.6° (Epoch: 09 December)

Date Brightness Start Highest point End Pass type
(mag) Time Alt. Az. Time Alt. Az. Time Alt. Az.
13 Dec -0.9 07:14:22 10° SSW 07:16:54 20° SE 07:19:26 10° E visible
14 Dec -0.7 06:27:22 10° S 06:29:08 14° SE 06:30:54 10° ESE visible
15 Dec -2.2 07:14:15 10° SW 07:17:24 37° SSE 07:20:34 10° E visible
16 Dec -1.7 06:26:43 11° SSW 06:29:30 27° SSE 06:32:24 10° E visible
17 Dec -1.4 05:41:17 19° SSE 05:41:36 19° SE 05:44:05 10° E visible
17 Dec -3.4 07:14:36 10° WSW 07:17:57 66° SSE 07:21:19 10° E visible
18 Dec -3.0 06:28:35 30° SW 06:29:55 50° SSE 06:33:12 10° E visible
19 Dec -1.9 05:42:43 31° ESE 05:42:43 31° ESE 05:45:01 10° E visible
19 Dec -3.8 07:15:39 14° W 07:18:29 89° N 07:21:53 10° E visible
